Regional Weather Roundup
Issued by NWS

Home | Current Version | Previous Version | Graphics & Text | Print | Product List | Glossary On
Versions: 1 2 3 4 5 6 7 8 9 10 11 12 13 14 15 16 17 18 19 20 21 22 23 24 25 26 27 28 29 30 31 32 33 34 35 36 37 38 39 40 41 42 43 44 45 46 47 48 49 50
000
ASUS45 KPSR 290710
RWRAZ

ARIZONA REGIONAL HOURLY WEATHER ROUNDUP
NATIONAL WEATHER SERVICE PHOENIX AZ
1200 AM MST MON DEC 29 2014

NOTE: FAIR INDICATES FEW OR NO CLOUDS BELOW 12,000 FEET WITH NO
SIGNIFICANT WEATHER AND/OR OBSTRUCTIONS TO VISIBILITY.

AZZ001>003-036-290800-
NORTHWEST ARIZONA

CITY           SKY/WX    TMP DP  RH WIND       PRES   REMARKS
BULLHEAD CITY  CLEAR     37  16  41 CALM      30.18S
KINGMAN        CLEAR     25  13  60 SE6       30.11S WCI  18
$$

AZZ004>008-015-016-018-290800-
NORTH CENTRAL ARIZONA

CITY           SKY/WX    TMP DP  RH WIND       PRES   REMARKS
GRAND CANYON   PTCLDY    12   7  80 NE5       30.07F WCI   4
PRESCOTT       PTCLDY    22   8  55 SW5       30.10F WCI  16
FLAGSTAFF      CLEAR     15   7  70 W3        30.06F
PAYSON         CLEAR     27  14  59 CALM      30.14F
PAGE           CLEAR     29  10  45 W3        30.02F
$$

AZZ009>014-017-290800-
NORTHEAST ARIZONA

CITY           SKY/WX    TMP DP  RH WIND       PRES   REMARKS
WINSLOW        CLEAR     21  11  65 CALM      30.08S
SAINT JOHNS    CLEAR     18  10  71 SW3       30.06S
WINDOW ROCK    CLEAR      9   1  70 CALM      30.04F
SHOW LOW       CLEAR     27   9  46 S15       30.10S WCI  15
$$

AZZ023-290800-
GREATER PHOENIX AREA

CITY           SKY/WX    TMP DP  RH WIND       PRES   REMARKS
PHOENIX        CLEAR     44  26  49 E5        30.13F
BUCKEYE          N/A     36  21  55 NE6       30.15S WCI  31
LUKE AFB       CLEAR     37  25  61 N6        30.13F WCI  33
DEER VALLEY    CLEAR     41  21  44 N8        30.13F
SCOTTSDALE     CLEAR     38  25  59 CALM      30.14F
MESA-GATEWAY   CLEAR     34  25  69 E5        30.16F WCI  30
$$

AZZ027-028-290800-
SOUTHWEST MARICOPA COUNTY AND PINAL COUNTY

CITY           SKY/WX    TMP DP  RH WIND       PRES   REMARKS
CASA GRANDE    CLEAR     32  19  59 CALM      30.14F
GILA BEND      FAIR      39  23  52 S6        30.15F WCI  35
$$

AZZ503-504-507>509-290800-
SOUTHEAST ARIZONA

CITY           SKY/WX    TMP DP  RH WIND       PRES   REMARKS
TUCSON         CLEAR     38  28  67 SE6       30.15F WCI  33
DAVIS-MONTHAN  CLEAR     35  28  77 SE6       30.13F WCI  29
NOGALES        CLEAR     32  16  51 E3        30.13F
SIERRA VISTA   CLEAR     33  15  47 SW6       30.13F WCI  28
DOUGLAS        CLEAR     32  23  69 CALM      30.13F
SAFFORD        CLEAR     30  22  72 NE3       30.12F
$$

AZZ020-021-025-026-031-290800-
SOUTHWEST ARIZONA

CITY           SKY/WX    TMP DP  RH WIND       PRES   REMARKS
YUMA           CLEAR    N/A N/A N/A CALM      30.15F
$$

CAZ031-033-041-043-047-048-061-290800-
SOUTHERN CALIFORNIA

CITY           SKY/WX    TMP DP  RH WIND       PRES   REMARKS
DOWNTOWN L.A.  CLEAR     47  39  74 CALM      30.19S
L.A. AIRPORT   CLEAR     52  40  63 VRB5      30.19F
SAN DIEGO      PTCLDY    52  36  54 CALM      30.21S
BURBANK        CLEAR     43  33  68 CALM      30.18F
ONTARIO        PTCLDY    44  30  57 CALM      30.18F
RIVERSIDE      CLEAR     43  33  68 CALM      30.19F
PALM SPRINGS   CLEAR     44  22  41 NW5       30.17F
EL CENTRO NAS  CLEAR     39  17  41 W5        30.16F
IMPERIAL       CLEAR     38  21  50 SW3       30.16F
BLYTHE         CLEAR     38  19  46 CALM      30.15F
NEEDLES        CLEAR     40  13  33 W5        30.15S
$$

NVZ020-UTZ003-290800-
SOUTHERN NEVADA-UTAH

CITY           SKY/WX    TMP DP  RH WIND       PRES   REMARKS
LAS VEGAS      CLEAR     36  13  38 SW7       30.08F WCI  30
SALT LAKE CITY CLOUDY    28  25  88 E7        30.02F WCI  21
$$

NMZ009-TXZ055-290800-
NEW MEXICO-WEST TEXAS

CITY           SKY/WX    TMP DP  RH WIND       PRES   REMARKS
ALBUQUERQUE    PTCLDY    23  11  60 SE7       30.06F WCI  15
EL PASO        MOCLDY    41  30  65 SE7       30.09F
$$


........................KEY........................
SKY/WX - SKY CONDITION/WEATHER
TMP    - TEMPERATURE IN FAHRENHEIT
DP     - DEW POINT IN FAHRENHEIT
RH     - RELATIVE HUMIDITY IN PERCENT
WIND   - DIRECTION AND SPEED IN MILES PER HOUR (MPH)
VRB    - VARIABLE WIND DIRECTION
PRES   - MEAN SEA LEVEL PRESSURE IN INCHES OF MERCURY
         F - FALLING PRESSURE   R - RISING PRESSURE
         S - STEADY PRESSURE
VSB    - VISIBILITY IN MILES
HX     - HEAT INDEX IN FAHRENHEIT
WCI    - WIND CHILL INDEX IN FAHRENHEIT
TC     - TEMPERATURE IN CELSIUS WHICH IS ALSO KNOWN AS
         TEMPERATURE IN CENTIGRADE
AFB    - AIR FORCE BASE
         LUKE AFB IS LUKE AIR FORCE BASE
         DAVIS-MONTHAN IS DAVIS-MONTHAN AIR FORCE BASE
NAS    - NAVAL AIR STATION
         EL CENTRO NAS IS EL CENTRO NAVAL AIR STATION
N/A    - NOT AVAILABLE


USA.gov is the U.S. government's official web portal to all federal, state and local government web resources and services.